Location: Claflin County Park
(44.8478°N, 87.5507°W)
Time: 07:41:24
(UTC+00:00)

USA 234 - Pass Details

Date: 18 March 2026
Orbit: 1102 x 1106 km, 123.0° (Epoch: 4 January)

Event Time Altitude Azimuth Distance (km) Brightness Sun altitude
Exits shadow 01:32:05 13° 63° (ENE) 2,720 4.9 -17.1°
Maximum altitude 01:36:55 32° 8° (N) 1,807 4.5 -17.9°
Drops below altitude 10° 01:42:32 10° 308° (NW) 2,970 6.6 -18.9°
Sets 01:45:17 0° 299° (WNW) 3,929 7.7 -19.3°
